Location: Earls Croome
(52.0667°N, 2.2000°W)
Time: 02:10:20
(UTC+00:00)

H-2A R/B - Pass Details

Date: 17 November 2019
Orbit: 530 x 653 km, 98.3° (Epoch: 13 December)

Event Time Altitude Azimuth Distance (km) Brightness Sun altitude
Rises 05:05:49 0° 11° (N) 2,984 6.2 -22.1°
Reaches altitude 10° 05:08:04 10° 7° (N) 2,073 5.3 -21.7°
Enters shadow 05:12:27 53° 293° (WNW) 805 2.7 -21.1°
